[[{"header":{"parameterUnit":"m.s-1","parameterCategory":1,"la1":30.2991,"la2":30.254,"lo1":-89.0895,"lo2":-89.0444,"dy":0.0017,"dx":0.0017,"nx":28,"ny":28,"refTime":"2024-12-24T09:00:00:Z","depth":0,"parameterNumber":2,"parameterNumberName":"U-component_of_WINDS"},"data":[0,0,0,0,0,0,0,0,0,0,0,0,0,0,0,0,0,0,0,0,0,0,0,0,0,0,0,0,0,0,0,0,0,0,0,0,0,0,0,0,0,0,0,0,0,0,0,0,0,0,0,0,0,0,0,0,0,0,-7.8284,-7.8284,0,-7.8329,-7.833,-7.833,-7.8141,-7.8135,-7.8129,-7.8124,-7.8169,-7.8175,-7.8181,0,0,0,0,0,0,0,0,0,0,0,0,0,-7.8033,-7.8038,-7.8284,-7.8284,-7.8285,-7.8329,-7.833,-7.833,-7.8141,-7.8135,-7.8128,-7.8122,-7.8167,-7.8174,-7.8182,0,0,0,0,0,0,0,0,0,0,0,0,0,-7.8116,-7.804,-7.8284,-7.8196,-7.8189,-7.8329,-7.833,-7.833,-7.8143,-7.8135,-7.8126,-7.8118,-7.8164,-7.8174,-7.8183,-7.8409,0,0,-7.8212,-7.8216,0,0,0,0,0,0,0,0,-7.8112,-7.8126,-7.8209,-7.8203,-7.8194,-7.8221,-7.8257,-7.8357,-7.8145,-7.816,-7.8124,-7.8114,-7.8193,-7.8199,-7.8226,-7.8411,-7.8413,-7.8213,-7.8219,-7.8223,-7.8226,0,0,0,0,0,0,0,-7.8106,-7.8123,-7.8301,-7.821,-7.8201,-7.8154,-7.8157,-7.8275,-7.8223,-7.8158,-7.8145,-7.8153,-7.8187,-7.8217,-7.8226,-7.8414,-7.8213,-7.8221,-7.8227,-7.8231,-7.8785,-7.8794,0,0,0,0,0,0,-7.8112,-7.8119,-7.83,-7.8303,-7.8132,-7.8166,-7.8168,-7.8221,-7.8221,-7.8213,-7.816,-7.8144,-7.8205,-7.8215,-7.8227,-7.849,-7.8223,-7.8232,-7.8237,-7.8776,-7.8787,-7.8797,0,0,0,0,0,0,-7.8108,-7.813,-7.8298,-7.8207,-7.8225,-7.8179,-7.8239,-7.8226,-7.8256,-7.8222,-7.8212,-7.82,-7.8199,-7.8213,-7.8365,-7.8489,-7.8236,-7.8245,-7.8766,-7.878,-7.8792,-7.902,0,0,0,0,0,0,-7.8101,-7.813,-7.8215,-7.8211,-7.8231,-7.8437,-7.8247,-7.8233,-7.8273,-7.8252,-7.8257,-7.825,-7.8194,-7.8352,-7.8375,-7.8498,-7.8252,-7.8754,-7.8772,-7.8788,-7.9001,-7.904,-7.9073,0,0,0,0,0,-7.8093,-7.8278,-7.8221,-7.8244,-7.8337,-7.8445,-7.8456,-7.8387,-7.8284,-7.8369,-7.8347,-7.825,-7.8473,-7.8369,-7.8393,-7.8521,-7.8746,-7.8767,-7.8787,-7.8985,-7.9032,-7.9072,0,0,0,0,0,0,-7.8297,-7.8275,-7.8212,-7.8401,-7.8426,-7.8412,-7.8518,-7.844,-7.8494,-7.8473,-7.8385,-7.8388,-7.8555,-7.8553,-7.8438,-7.8739,-7.8591,-7.8617,-7.8734,-7.8778,-7.8814,-7.881,-7.826,0,0,0,0,0,-7.8365,-7.8454,-7.843,-7.8599,-7.8615,-7.8565,-7.8609,-7.8555,-7.8577,-7.8586,-7.8575,-7.8601,-7.8676,-7.8727,-7.8795,-7.9001,-7.8998,-7.9101,-7.9136,-7.9166,-7.9189,-7.9297,-7.9342,-7.8863,-7.8863,-7.8863,0,0,-7.8504,-7.8503,-7.8565,-7.864,-7.8653,-7.8747,-7.8575,-7.8682,-7.8751,-7.8602,-7.8744,-7.8739,-7.876,-7.894,-7.9019,-7.8944,-7.9321,-7.9192,-7.9216,-7.9222,-7.9322,-7.9368,-7.9408,-7.8877,-7.8875,-7.8872,0,0,-7.8805,-7.8815,-7.8956,-7.8973,-7.8995,-7.8961,-7.8995,-7.8994,-7.8984,-7.9126,-7.9016,-7.9097,-7.9229,-7.9249,-7.9276,-7.9587,-7.9499,-7.9612,-7.9798,-7.9904,-7.9942,-7.9975,-8.0084,-8.0125,-7.9635,-7.9636,-7.9636,0,-7.8975,-7.9113,-7.9038,-7.9153,-7.9189,-7.906,-7.9202,-7.9222,-7.9266,-7.9293,-7.9209,-7.9371,-7.9377,-7.956,-7.9636,-7.9663,-7.9698,-7.961,-7.9943,-7.9975,-8.0004,-8.0108,-8.015,-7.9649,-7.9648,-7.9646,-7.9645,0,-7.9321,-7.9419,-7.953,-7.9576,-7.9624,-7.9753,-7.9696,-7.9755,-7.9696,-7.9671,-7.9817,-7.982,-7.9885,-7.9925,-7.9869,-8.01,-8.0053,-7.9958,-7.9806,-8.0065,-8.016,-8.02,-7.9668,-7.9664,-7.966,-7.9656,0,0,-7.975,-7.9754,-7.9796,-7.9815,-7.9831,-7.9905,-8.0027,-8.0092,-8.0143,-8.0178,-8.0277,-8.0393,-8.0304,-8.0336,-8.0281,-8.0375,-8.062,-8.0267,-8.0266,-8.0332,-8.0873,-8.0944,-8.0991,-8.0562,-8.057,-8.0576,-8.0871,0,-8.0045,-8.0254,-8.0191,-8.0401,-8.049,-8.0369,-8.0476,-8.0497,-8.0477,-8.0549,-8.0526,-8.0609,-8.0487,-8.0505,-8.0593,-8.0572,-8.0727,-8.055,-8.0653,-8.0658,-8.065,-8.1041,-8.1116,-8.1395,-8.0908,-8.0915,-8.0919,0,-8.0416,-8.0467,-8.0686,-8.0687,-8.0722,-8.0819,-8.0873,-8.0944,-8.0965,-8.0944,-8.0981,-8.0906,-8.1025,-8.0876,-8.1039,-8.092,-8.0958,-8.0955,-8.0964,-8.0969,-8.0803,-8.1056,-8.1482,-8.1524,-8.0978,-8.0973,-8.0969,0,-8.0706,-8.0829,-8.0976,-8.0996,-8.1001,-8.1072,-8.1078,-8.1091,-8.1134,-8.1181,-8.1208,-8.127,-8.1303,-8.1351,-8.1296,-8.1192,-8.1466,-8.1312,-8.1451,-8.1453,-8.1512,-8.1509,-8.1949,-8.1541,-8.1541,-8.154,-8.1539,0,-8.1041,-8.118,-8.1106,-8.1196,-8.1348,-8.1274,-8.1426,-8.1418,-8.1431,-8.1517,-8.1417,-8.15,-8.1422,-8.1498,-8.1455,-8.1595,-8.1612,-8.1597,-8.1584,-8.1605,-8.1607,-8.1628,-8.1606,-8.1551,-8.1548,-8.1546,-8.1544,0,-8.1389,-8.1346,-8.1498,-8.1491,-8.1492,-8.1605,-8.1598,-8.1681,-8.1654,-8.1765,-8.1786,-8.1745,-8.1829,-8.1778,-8.1864,-8.1835,-8.2018,-8.1979,-8.2011,-8.2,-8.2141,-8.2127,-8.2608,-8.2667,-8.2223,-8.2228,-8.2231,0,-8.1604,-8.1708,-8.1713,-8.1764,-8.1776,-8.186,-8.1903,-8.1835,-8.1884,-8.1917,-8.1997,-8.2072,-8.2128,-8.2268,-8.2245,-8.231,-8.2271,-8.2435,-8.2279,-8.2298,-8.2271,-8.2265,-8.2274,-8.2465,-8.2471,-8.2475,-8.2478,0,-8.1991,-8.1965,-8.2032,-8.2093,-8.2148,-8.2192,-8.2228,-8.2275,-8.2207,-8.2267,-8.2352,-8.2397,-8.2484,-8.256,-8.2615,-8.2619,-8.2538,-8.2528,-8.2563,-8.2585,-8.2598,-8.2591,-8.2094,-8.2516,-8.2513,-8.251,-8.2508,-8.2506,-8.2278,-8.2364,-8.2382,-8.246,-8.248,-8.2516,-8.2593,-8.2577,-8.2647,-8.2713,-8.2669,-8.277,-8.2788,-8.2854,-8.2869,-8.2946,-8.2879,-8.2931,-8.2944,-8.2957,-8.2976,-8.2589,-8.2956,-8.2955,-8.2954,-8.2953,-8.2952,0,-8.2657,-8.2663,-8.2736,-8.279,-8.2852,-8.2771,-8.2806,-8.2863,-8.2953,-8.2978,-8.3036,-8.3134,-8.3207,-8.3191,-8.3257,-8.3322,-8.3286,-8.3341,-8.3335,-8.3337,-8.3032,-8.2994,-8.3369,-8.3369,-8.3369,-8.3369,-8.3369,-8.3369,-8.2862,-8.3004,-8.2981,-8.3131,-8.3135,-8.3233,-8.3261,-8.3293,-8.3312,-8.3426,-8.3487,-8.3476,-8.3485,-8.3551,-8.3614,-8.3607,-8.3636,-8.3705,-8.3684,-8.34,-8.3358,-8.3319,-8.3283,-8.3712,-8.3713,-8.3982,-8.3984,-8.3986]},{"header":{"parameterUnit":"m.s-1","parameterCategory":1,"la1":30.2991,"la2":30.254,"lo1":-89.0895,"lo2":-89.0444,"dy":0.0017,"dx":0.0017,"nx":28,"ny":28,"refTime":"2024-12-24T09:00:00:Z","depth":0,"parameterNumber":3,"parameterNumberName":"V-component_of_WINDS"},"data":[0,0,0,0,0,0,0,0,0,0,0,0,0,0,0,0,0,0,0,0,0,0,0,0,0,0,0,0,0,0,0,0,0,0,0,0,0,0,0,0,0,0,0,0,0,0,0,0,0,0,0,0,0,0,0,0,0,0,-0.6865,-0.6865,0,-0.6855,-0.6855,-0.6855,-0.6844,-0.6844,-0.6843,-0.6843,-0.6833,-0.6833,-0.6833,0,0,0,0,0,0,0,0,0,0,0,0,0,-0.6874,-0.6874,-0.6865,-0.6865,-0.6865,-0.6855,-0.6855,-0.6855,-0.6844,-0.6844,-0.6843,-0.6843,-0.6833,-0.6833,-0.6833,0,0,0,0,0,0,0,0,0,0,0,0,0,-0.6868,-0.6874,-0.6866,-0.6859,-0.6858,-0.6855,-0.6855,-0.6855,-0.6844,-0.6844,-0.6843,-0.6843,-0.6833,-0.6833,-0.6833,-0.6836,0,0,-0.6832,-0.6832,0,0,0,0,0,0,0,0,-0.6868,-0.6868,-0.686,-0.6859,-0.6858,-0.685,-0.6854,-0.6848,-0.6844,-0.6849,-0.6843,-0.6843,-0.6839,-0.6838,-0.6837,-0.6835,-0.6835,-0.6832,-0.6832,-0.6832,-0.6832,0,0,0,0,0,0,0,-0.6869,-0.6868,-0.6861,-0.686,-0.6859,-0.6855,-0.6854,-0.6853,-0.6845,-0.6849,-0.6848,-0.6847,-0.6838,-0.6837,-0.6836,-0.6835,-0.6832,-0.6832,-0.6832,-0.6832,-0.6832,-0.6833,0,0,0,0,0,0,-0.687,-0.6868,-0.6862,-0.6861,-0.6863,-0.6855,-0.6854,-0.6853,-0.6845,-0.6844,-0.6847,-0.6846,-0.6837,-0.6837,-0.6836,-0.6838,-0.6832,-0.6832,-0.6831,-0.6832,-0.6832,-0.6833,0,0,0,0,0,0,-0.6871,-0.687,-0.6862,-0.6864,-0.6863,-0.6855,-0.6855,-0.6853,-0.6852,-0.6844,-0.6843,-0.6847,-0.6837,-0.6836,-0.6835,-0.6837,-0.6831,-0.6831,-0.6832,-0.6832,-0.6833,-0.6842,0,0,0,0,0,0,-0.6871,-0.687,-0.6872,-0.6865,-0.6863,-0.6862,-0.6855,-0.6853,-0.6851,-0.685,-0.6844,-0.6842,-0.6837,-0.6836,-0.6835,-0.6837,-0.6831,-0.6832,-0.6832,-0.6832,-0.6841,-0.6842,-0.6843,0,0,0,0,0,-0.6871,-0.6876,-0.6872,-0.6871,-0.6865,-0.6862,-0.6861,-0.6855,-0.6851,-0.6853,-0.6847,-0.6843,-0.6837,-0.6836,-0.6835,-0.6837,-0.6832,-0.6832,-0.6832,-0.6841,-0.6842,-0.6843,0,0,0,0,0,0,-0.6884,-0.6875,-0.6871,-0.6873,-0.6868,-0.6861,-0.6862,-0.6857,-0.6854,-0.6853,-0.6845,-0.6844,-0.6843,-0.684,-0.6838,-0.6838,-0.6833,-0.6834,-0.684,-0.6841,-0.6842,-0.6843,-0.6831,0,0,0,0,0,-0.6887,-0.6886,-0.6877,-0.688,-0.6878,-0.687,-0.6869,-0.6864,-0.6859,-0.6857,-0.6852,-0.6847,-0.6844,-0.6843,-0.684,-0.684,-0.6838,-0.6841,-0.6842,-0.6843,-0.6843,-0.6841,-0.6842,-0.6834,-0.6834,-0.6834,0,0,-0.6894,-0.6888,-0.6888,-0.6883,-0.6879,-0.6876,-0.6869,-0.6868,-0.6866,-0.6857,-0.6855,-0.6851,-0.6845,-0.6845,-0.6844,-0.6842,-0.6844,-0.6843,-0.6844,-0.6844,-0.6841,-0.6842,-0.6843,-0.6834,-0.6834,-0.6834,0,0,-0.6904,-0.6901,-0.6901,-0.6897,-0.689,-0.6885,-0.6885,-0.6877,-0.6873,-0.6871,-0.6864,-0.6861,-0.6857,-0.6852,-0.6849,-0.6854,-0.6849,-0.6854,-0.6859,-0.6857,-0.6857,-0.6858,-0.6858,-0.6859,-0.6854,-0.6854,-0.6854,0,-0.6913,-0.691,-0.6903,-0.6901,-0.6898,-0.6889,-0.6888,-0.6884,-0.6877,-0.6875,-0.6872,-0.6864,-0.686,-0.6857,-0.6858,-0.6856,-0.6855,-0.6855,-0.6858,-0.6858,-0.6859,-0.6859,-0.6859,-0.6854,-0.6854,-0.6854,-0.6854,0,-0.6921,-0.6918,-0.692,-0.6912,-0.6909,-0.6908,-0.6899,-0.6897,-0.6891,-0.6886,-0.6882,-0.6876,-0.687,-0.6869,-0.6865,-0.6865,-0.6863,-0.6859,-0.6855,-0.686,-0.686,-0.686,-0.6855,-0.6855,-0.6855,-0.6855,0,0,-0.6941,-0.6927,-0.6927,-0.6923,-0.6913,-0.6911,-0.6909,-0.6903,-0.69,-0.6895,-0.6892,-0.6887,-0.6882,-0.6878,-0.6873,-0.6871,-0.6874,-0.6867,-0.6867,-0.6868,-0.6871,-0.6874,-0.6874,-0.687,-0.687,-0.687,-0.6871,0,-0.6949,-0.6945,-0.6937,-0.6935,-0.6931,-0.6921,-0.6919,-0.6912,-0.6906,-0.6902,-0.6895,-0.6891,-0.6886,-0.6883,-0.6881,-0.6874,-0.6874,-0.6874,-0.6866,-0.6866,-0.6868,-0.6875,-0.6878,-0.688,-0.6872,-0.6872,-0.6872,0,-0.6959,-0.6953,-0.6951,-0.6939,-0.6937,-0.6935,-0.6928,-0.6924,-0.6915,-0.6911,-0.6905,-0.6899,-0.6894,-0.689,-0.6883,-0.6883,-0.6879,-0.6875,-0.6875,-0.6874,-0.6869,-0.6873,-0.6881,-0.6881,-0.6872,-0.6872,-0.6872,0,-0.6973,-0.6964,-0.6961,-0.6957,-0.6944,-0.6942,-0.6937,-0.6928,-0.6924,-0.6917,-0.6914,-0.6907,-0.6902,-0.6897,-0.6887,-0.6885,-0.6881,-0.6876,-0.6876,-0.6876,-0.6876,-0.6876,-0.6882,-0.6874,-0.6874,-0.6874,-0.6874,0,-0.6983,-0.6981,-0.6966,-0.6964,-0.6961,-0.6951,-0.6948,-0.6941,-0.6933,-0.6929,-0.692,-0.6916,-0.6904,-0.6898,-0.6891,-0.6885,-0.6884,-0.6879,-0.6877,-0.688,-0.688,-0.6877,-0.6877,-0.6874,-0.6874,-0.6874,-0.6874,0,-0.6998,-0.6988,-0.6983,-0.697,-0.6967,-0.6965,-0.6954,-0.695,-0.6943,-0.6937,-0.6935,-0.6923,-0.6916,-0.6905,-0.6895,-0.689,-0.6885,-0.6883,-0.6888,-0.6887,-0.6887,-0.6887,-0.6891,-0.6891,-0.6884,-0.6884,-0.6884,0,-0.7005,-0.7003,-0.6989,-0.6985,-0.698,-0.6974,-0.6969,-0.6957,-0.6953,-0.6941,-0.6939,-0.6931,-0.6923,-0.6911,-0.6902,-0.6893,-0.689,-0.6892,-0.6888,-0.689,-0.6888,-0.6888,-0.6887,-0.6893,-0.6893,-0.6893,-0.6893,0,-0.7018,-0.7012,-0.7006,-0.6996,-0.699,-0.6983,-0.6975,-0.6972,-0.6959,-0.6953,-0.6945,-0.6939,-0.6927,-0.6919,-0.6908,-0.6902,-0.6895,-0.6894,-0.6893,-0.6896,-0.6898,-0.6896,-0.689,-0.6894,-0.6894,-0.6894,-0.6894,-0.6894,-0.7028,-0.7025,-0.7014,-0.7007,-0.6999,-0.6991,-0.6986,-0.6977,-0.697,-0.6959,-0.6953,-0.6944,-0.6933,-0.6918,-0.6912,-0.6904,-0.6902,-0.6901,-0.6901,-0.6901,-0.6901,-0.69,-0.6903,-0.6903,-0.6903,-0.6903,-0.6903,0,-0.704,-0.7031,-0.7024,-0.7012,-0.7006,-0.6999,-0.6989,-0.6983,-0.6976,-0.6966,-0.6958,-0.6947,-0.6938,-0.6926,-0.6916,-0.6912,-0.6908,-0.691,-0.691,-0.6908,-0.6905,-0.6906,-0.6913,-0.6913,-0.6913,-0.6913,-0.6913,-0.6913,-0.7045,-0.7039,-0.7031,-0.7021,-0.7012,-0.7003,-0.6998,-0.699,-0.6982,-0.697,-0.6962,-0.6954,-0.6943,-0.6931,-0.6922,-0.6918,-0.6915,-0.6917,-0.6912,-0.6909,-0.6909,-0.6908,-0.6909,-0.6916,-0.6916,-0.6916,-0.6916,-0.6916]}]]